Temp
16 17 16 16 16 15 15 15 15 15 16 15 13 14 14 14 14 13 13 13 13 14 13 11 11 11 12 14 11 12 13 13 14 16 15 15 15 14 14 14 12 9 10 17 22 22 23 26 28 27 30 30 30 32 34 36 36 37 37 37 37 37 38
15 15 15 15 15 14 15 14 14 15 14 13 12 12 12 12 11 11 11 11 11 12 11 11 10 10 11 13 10 10 10 11 11 12 12 12 12 12 12 15 12 11 11 9 18 19 23 23 26 24 29 28 29 30 32 33 34 36 37 37 37 37 37
15 15 15 14 13 15 13 13 13 13 12 11 11 10 10 11 10 9 9 9 9 9 10 8 8 8 9 10 9 9 9 10 9 10 9 9 11 10 12 13 14 11 8 9 11 16 17 19 21 22 23 27 29 30 31 31 32 33 35 36 37 36 36
15 14 13 12 13 12 11 11 11 11 11 10 10 9 9 9 9 9 8 7 6 7 7 6 6 6 7 7 6 6 7 8 9 8 8 8 9 10 10 12 13 13 10 10 9 13 14 17 18 20 23 25 27 27 28 29 30 31 31 33 34 36 36
14 12 12 11 10 10 10 10 10 9 9 9 9 8 8 7 6 6 6 6 6 7 6 5 5 6 6 6 5 5 6 6 6 7 7 7 8 9 10 11 12 12 13 10 8 11 15 16 17 19 20 22 21 23 25 28 27 28 29 30 31 33 35
11 11 10 10 10 10 9 10 9 8 8 8 8 8 7 6 5 6 5 5 5 5 5 5 5 5 5 4 3 3 5 5 5 6 6 6 7 8 9 9 10 11 10 10 9 10 10 14 13 14 16 19 20 19 20 20 23 26 27 28 29 30 32
9 10 9 9 9 8 8 8 7 7 6 6 6 5 4 4 4 4 4 4 4 4 5 5 4 4 4 4 4 3 3 4 4 5 5 6 6 6 6 6 7 8 8 8 8 8 10 11 13 14 12 17 20 20 20 19 19 21 26 28 28 28 31
7 8 8 7 7 7 7 6 5 5 5 4 3 2 2 2 2 2 2 3 3 4 4 4 4 4 4 4 4 4 4 4 4 5 4 6 6 6 6 5 6 6 7 6 6 7 7 9 10 12 14 17 17 15 16 19 19 18 21 24 27 28 28
7 5 5 5 5 4 5 3 2 3 2 1 1 1 0 1 0 0 0 1 1 3 3 4 4 4 5 5 7 8 7 7 7 5 4 5 6 6 6 5 6 6 6 6 6 6 8 9 9 10 11 11 12 13 14 19 21 19 22 24 25 27 30
5 3 2 2 1 2 1 1 1 2 6 7 3 2 2 2 3 2 2 2 2 3 4 4 4 5 7 7 8 8 8 9 10 10 8 7 7 6 6 6 5 5 6 6 6 6 7 6 7 9 11 11 13 16 18 17 18 18 21 23 23 25 28
1 1 1 0 -1 -1 -1 -1 0 5 4 3 5 4 2 2 3 4 4 4 4 3 5 6 7 7 8 8 9 8 10 10 10 11 12 12 11 11 8 6 5 6 6 6 6 7 7 7 7 9 12 12 13 15 15 16 18 18 19 19 19 18 24
-0 -0 -1 -1 -1 -2 -2 -2 2 8 1 1 -1 5 4 4 3 4 4 5 5 5 6 6 7 8 9 9 9 9 9 10 11 12 12 12 13 13 15 14 9 7 6 6 6 6 7 7 7 9 11 11 12 13 14 15 16 16 17 18 19 20 20
-1 -2 -1 -2 -3 -3 -2 -2 3 5 0 6 5 10 5 4 5 4 5 5 5 5 5 6 6 6 8 9 11 11 10 9 9 11 12 12 12 13 15 16 16 16 11 9 8 7 7 8 9 9 10 13 13 15 12 13 14 15 17 18 19 21 23
-2 -2 -3 -3 -3 -3 -3 -4 1 5 3 4 5 6 3 4 5 5 5 4 4 5 5 5 5 6 6 8 9 10 10 10 9 9 9 9 9 10 11 14 16 16 16 15 11 9 7 10 12 10 12 14 16 13 11 12 11 13 14 14 15 20 22
-3 -3 -3 -3 -3 -4 -4 -4 3 2 1 4 5 7 5 4 4 4 4 4 4 4 5 5 6 6 6 7 8 9 10 9 9 9 9 9 9 9 9 10 11 11 12 12 13 13 11 12 13 14 14 15 16 15 14 14 13 14 14 15 18 18 18
-2 -3 -4 -3 -4 -4 -5 -4 6 2 4 7 2 7 5 3 3 3 3 4 5 5 6 7 7 7 7 8 8 10 15 14 12 10 9 8 9 9 9 10 14 17 17 14 13 12 12 13 15 18 15 16 16 16 16 16 16 16 15 13 11 10 14
-4 -3 -4 -4 -4 -5 -5 -4 1 2 1 8 5 5 2 2 3 3 3 4 5 6 7 8 8 9 9 9 9 12 16 18 16 12 11 10 9 9 9 9 12 17 20 20 20 20 20 20 20 20 21 22 22 19 17 15 13 11 13 10 8 9 11
-4 -3 -3 -4 -4 -4 -5 -5 -1 5 1 0 2 6 2 3 3 3 4 5 6 7 8 9 11 11 10 10 10 15 17 18 16 12 12 11 11 10 8 9 11 12 14 20 21 20 20 20 20 21 21 22 23 23 20 14 10 12 14 10 10 9 11
-4 -4 -3 -3 -4 -2 -4 -5 -2 4 5 2 2 1 2 2 3 2 3 4 5 7 8 9 11 13 13 13 15 18 19 20 17 14 13 13 12 11 10 11 12 11 11 11 11 12 14 15 18 17 16 17 19 21 21 18 15 15 13 10 11 12 12
-4 -5 -5 -5 -5 -5 -5 -6 -5 -2 6 -1 4 4 3 4 3 2 2 4 4 4 6 9 10 13 14 17 17 18 18 19 19 15 14 14 13 12 11 15 14 13 13 12 12 11 11 11 12 13 13 13 14 16 17 17 17 16 15 13 12 13 13
-6 -7 -7 -6 -5 -5 -4 -4 -4 -2 6 1 5 7 7 4 3 3 3 3 4 5 6 8 9 10 12 14 16 16 17 18 18 18 14 15 15 15 17 18 14 14 15 12 12 12 12 12 12 12 13 13 13 14 15 16 17 17 16 15 13 13 13
-7 -7 -7 -6 -5 -4 -4 -1 0 -1 4 7 6 7 7 4 3 5 4 3 4 6 6 7 9 9 10 11 15 16 17 18 18 19 15 16 21 22 22 19 17 15 14 14 13 13 12 12 12 12 12 13 14 15 16 16 16 17 17 17 17 15 14
-8 -8 -7 -6 -4 -3 -2 -1 0 2 1 5 7 6 6 7 5 9 5 3 3 4 5 8 8 8 9 11 14 15 16 16 16 16 15 19 20 21 20 19 18 17 15 14 13 12 11 12 12 12 12 13 14 15 16 16 17 17 18 18 19 19 19
-7 -7 -7 -7 -5 -3 -1 -1 0 2 3 2 5 7 5 5 6 6 3 4 4 6 6 7 7 7 11 13 13 14 14 15 13 12 17 17 18 18 20 18 17 16 16 15 14 12 12 12 13 13 14 14 16 17 17 17 17 18 18 18 19 19 20
-7 -8 -7 -7 -6 -4 -3 -1 -1 0 2 3 3 7 8 7 3 4 5 4 5 6 7 8 11 12 11 11 12 12 11 9 9 12 12 13 14 17 18 18 17 17 16 15 13 13 13 13 14 15 15 16 17 18 19 18 18 19 19 19 19 19 20
-8 -8 -7 -7 -6 -5 -4 -3 -2 -1 -1 1 1 2 4 5 4 3 5 7 6 8 8 7 8 7 7 6 7 5 5 5 6 8 9 11 12 11 13 15 16 16 15 15 16 15 14 15 16 17 18 18 18 18 17 18 18 18 18 19 19 18 19
-8 -8 -7 -7 -7 -6 -5 -4 -2 -2 -2 -1 -1 -1 -0 -0 0 4 6 5 5 5 3 3 4 4 5 6 6 6 6 6 6 5 5 6 6 7 9 11 13 14 15 16 16 17 17 18 19 19 19 18 18 17 18 20 19 18 17 18 18 17 17
-9 -8 -8 -8 -7 -6 -5 -5 -5 -4 -4 -3 -2 -2 -2 -1 0 2 3 3 3 2 1 1 3 3 3 3 2 2 2 2 2 2 2 2 3 4 7 9 12 15 16 17 18 18 20 19 19 18 18 18 18 18 19 20 19 18 18 19 18 16 15
-7 -6 -5 -6 -6 -7 -7 -7 -7 -5 0 -2 -0 -2 -2 -2 0 2 2 4 4 1 -0 0 -1 -1 -1 -1 -2 -2 -2 -1 -1 -1 -0 -0 1 2 4 6 8 9 13 17 18 18 17 17 18 18 19 18 18 18 19 20 19 19 18 18 18 15 15
-5 -4 -4 -5 -3 -3 -6 -7 -5 -1 -6 -6 -3 3 -0 2 3 3 3 4 3 1 -3 -3 -4 -4 -4 -4 -4 -5 -4 -4 -4 -4 -3 -2 0 1 1 4 6 8 10 15 17 18 18 17 17 17 17 17 17 17 18 19 19 17 18 17 16 16 16
-2 -5 -1 -2 -4 -3 -1 -2 -2 -0 -6 -3 -3 -1 0 2 2 3 3 3 -1 -4 -5 -6 -6 -6 -5 -5 -5 -6 -5 -5 -5 -5 -5 -5 -3 -2 0 2 3 5 8 8 14 17 18 18 17 16 17 16 17 17 17 17 18 18 18 17 17 16 16
-2 -3 -2 -1 -2 -4 -6 -3 -2 -2 -4 -3 -0 1 -3 1 4 3 3 2 0 -6 -7 -6 -7 -8 -7 -7 -7 -6 -6 -6 -6 -6 -6 -6 -5 -4 -2 -1 0 3 3 6 11 16 17 17 17 16 16 16 16 16 16 16 16 17 16 17 17 16 17
-2 -1 0 -3 -5 -7 -6 -5 -3 -4 -4 -4 -1 -0 2 3 2 1 1 -0 -6 -8 -9 -8 -8 -8 -8 -8 -8 -7 -7 -7 -6 -6 -6 -6 -6 -6 -4 -2 -0 2 4 7 11 16 17 17 17 17 16 16 16 16 15 15 15 16 16 16 16 16 17
-1 -2 -4 -2 -1 -0 -0 -0 -1 -2 -1 -1 0 -3 -1 1 -2 0 0 -3 -8 -9 -10 -9 -9 -9 -9 -8 -8 -8 -7 -7 -7 -7 -7 -6 -6 -5 -4 -3 -1 1 2 4 5 10 17 17 17 17 16 16 16 16 16 15 15 15 15 15 16 16 16
-10 -7 -6 -8 -8 -7 -6 -7 -7 -7 -7 -5 -2 1 1 -1 -8 -10 -9 -8 -9 -9 -10 -11 -10 -10 -9 -9 -9 -8 -8 -8 -8 -8 -7 -7 -7 -6 -6 -5 -3 -1 1 1 2 5 12 17 17 17 17 16 15 15 14 14 15 15 16 15 15 16 16
-11 -11 -8 -7 -7 -7 -7 -7 -8 -8 -7 -1 1 -0 -4 -11 -11 -12 -12 -12 -11 -11 -11 -10 -10 -10 -10 -9 -9 -8 -8 -8 -8 -8 -8 -7 -7 -7 -7 -6 -4 -2 -2 -1 -0 3 6 10 15 17 16 16 16 15 15 15 15 15 15 15 15 16 17
MSLP
1031.62 1031.30 1031.06 1030.90 1030.70 1030.50 1030.38 1030.10 1029.86 1029.62 1029.22 1029.10 1028.86 1028.42 1028.10 1028.02 1027.74 1027.46 1027.30 1027.06 1026.82 1026.62 1026.42 1026.18 1025.82 1025.70 1025.50 1025.34 1025.10 1024.82 1024.50 1024.18 1023.82 1023.46 1023.10 1022.90 1022.78 1022.54 1022.26 1022.02 1021.70 1021.10 1020.06 1019.18 1019.02 1018.10 1017.58 1017.30 1017.14 1016.46 1016.30 1015.82 1015.50 1015.22 1014.94 1014.70 1014.42 1014.22 1014.02 1013.98 1013.90 1013.82 1013.78
1031.54 1031.22 1030.94 1030.74 1030.50 1030.42 1030.10 1030.02 1029.66 1029.38 1029.38 1028.98 1028.82 1028.46 1028.38 1028.02 1027.86 1027.54 1027.22 1026.94 1026.62 1026.38 1026.14 1025.90 1025.62 1025.38 1025.30 1025.10 1024.90 1024.66 1024.46 1024.18 1023.90 1023.66 1023.46 1023.18 1022.94 1022.62 1022.22 1021.90 1021.62 1020.94 1020.34 1019.62 1019.06 1018.26 1017.58 1017.34 1017.10 1016.42 1015.98 1015.66 1015.34 1014.94 1014.70 1014.42 1014.14 1013.86 1013.62 1013.46 1013.46 1013.34 1013.26
1031.42 1031.02 1030.78 1030.58 1030.46 1029.90 1030.10 1029.86 1029.66 1029.46 1029.18 1028.98 1028.70 1028.46 1028.22 1027.98 1027.74 1027.46 1027.18 1026.82 1026.54 1026.26 1026.02 1025.74 1025.42 1025.10 1024.98 1024.82 1024.58 1024.38 1024.18 1024.02 1023.82 1023.66 1023.42 1023.18 1022.90 1022.58 1022.18 1021.86 1021.50 1021.10 1020.54 1020.10 1019.42 1018.94 1017.90 1017.58 1017.26 1016.82 1016.14 1015.90 1015.30 1014.82 1014.54 1014.14 1013.82 1013.66 1013.42 1013.18 1012.98 1012.86 1012.90
1031.22 1031.02 1030.90 1030.58 1030.22 1030.38 1030.10 1029.82 1029.62 1029.30 1029.14 1028.82 1028.58 1028.30 1027.98 1027.74 1027.54 1027.26 1026.90 1026.62 1026.30 1026.06 1025.86 1025.62 1025.38 1025.06 1024.94 1024.78 1024.62 1024.34 1024.14 1023.90 1023.66 1023.50 1023.18 1022.90 1022.66 1022.34 1021.98 1021.66 1021.26 1020.82 1020.42 1019.86 1019.54 1018.74 1018.30 1017.34 1017.26 1016.66 1016.30 1015.94 1015.50 1014.86 1014.54 1014.14 1013.66 1013.42 1013.18 1012.94 1012.74 1012.50 1012.42
1031.10 1031.10 1030.86 1030.66 1030.50 1030.22 1029.90 1029.70 1029.46 1029.22 1028.94 1028.74 1028.46 1028.18 1027.86 1027.58 1027.30 1026.94 1026.62 1026.34 1026.02 1025.78 1025.62 1025.42 1025.18 1024.90 1024.78 1024.70 1024.46 1024.18 1023.98 1023.70 1023.54 1023.30 1023.02 1022.70 1022.34 1021.98 1021.62 1021.22 1020.86 1020.46 1020.14 1019.82 1019.34 1018.70 1018.10 1017.62 1017.14 1016.86 1016.42 1016.26 1015.86 1015.14 1014.62 1014.06 1013.42 1013.10 1012.94 1012.74 1012.54 1012.30 1012.02
1031.30 1031.10 1030.82 1030.62 1030.42 1030.02 1029.86 1029.46 1029.26 1029.06 1028.78 1028.54 1028.26 1027.94 1027.62 1027.26 1026.94 1026.58 1026.34 1026.02 1025.78 1025.54 1025.30 1025.06 1024.78 1024.58 1024.54 1024.42 1024.22 1023.86 1023.58 1023.38 1023.14 1022.90 1022.58 1022.30 1021.98 1021.66 1021.34 1020.94 1020.58 1020.22 1019.90 1019.62 1019.14 1018.78 1018.26 1017.82 1017.30 1016.86 1016.38 1016.22 1015.94 1015.50 1014.78 1014.34 1013.74 1013.14 1012.70 1012.46 1012.14 1011.90 1011.78
1031.30 1031.02 1030.86 1030.58 1030.26 1030.02 1029.66 1029.42 1029.14 1028.90 1028.58 1028.30 1027.98 1027.66 1027.38 1027.02 1026.62 1026.34 1026.06 1025.74 1025.46 1025.14 1024.86 1024.62 1024.38 1024.22 1024.10 1023.90 1023.62 1023.34 1023.10 1022.86 1022.62 1022.38 1022.06 1021.74 1021.50 1021.26 1021.02 1020.70 1020.34 1020.06 1019.78 1019.38 1019.02 1018.58 1018.22 1017.70 1017.10 1016.86 1016.10 1015.70 1015.70 1015.18 1014.70 1014.18 1013.46 1012.74 1012.22 1011.90 1011.70 1011.34 1011.22
1031.18 1030.94 1030.78 1030.42 1030.18 1029.86 1029.62 1029.30 1029.02 1028.70 1028.34 1028.02 1027.74 1027.46 1027.14 1026.82 1026.50 1026.10 1025.74 1025.30 1024.94 1024.66 1024.38 1024.06 1023.78 1023.50 1023.18 1022.98 1022.74 1022.54 1022.26 1022.14 1021.90 1021.50 1021.26 1020.94 1020.78 1020.62 1020.42 1020.14 1019.86 1019.62 1019.34 1019.02 1018.66 1018.30 1018.02 1017.58 1017.10 1016.42 1015.82 1015.34 1015.30 1015.02 1014.42 1014.06 1013.54 1012.74 1012.06 1011.58 1011.18 1010.82 1010.66
1031.10 1030.86 1030.58 1030.34 1030.06 1029.74 1029.50 1029.22 1028.82 1028.46 1028.10 1027.82 1027.38 1027.14 1026.82 1026.42 1026.14 1025.74 1025.26 1024.74 1024.26 1023.82 1023.54 1023.18 1022.86 1022.50 1022.18 1021.90 1021.58 1021.30 1021.02 1020.82 1020.74 1020.66 1020.42 1019.98 1019.94 1019.78 1019.58 1019.38 1019.14 1018.90 1018.62 1018.30 1017.98 1017.58 1017.26 1016.98 1016.58 1016.18 1015.74 1015.26 1015.02 1014.54 1013.94 1013.38 1012.98 1012.18 1011.50 1011.06 1010.82 1010.34 1010.22
1030.98 1030.78 1030.54 1030.22 1029.90 1029.62 1029.38 1029.02 1028.58 1028.10 1027.62 1026.94 1026.54 1026.26 1025.90 1025.54 1025.10 1024.70 1024.30 1023.78 1023.14 1022.62 1022.30 1021.98 1021.66 1021.26 1020.90 1020.66 1020.38 1020.10 1019.82 1019.58 1019.46 1019.34 1019.26 1019.02 1018.98 1018.90 1018.74 1018.54 1018.30 1018.06 1017.78 1017.46 1017.14 1016.78 1016.54 1016.34 1015.94 1015.62 1015.34 1014.94 1014.38 1014.02 1013.58 1013.22 1012.86 1012.10 1011.14 1010.78 1010.30 1009.98 1009.62
1030.78 1030.58 1030.30 1030.02 1029.70 1029.34 1028.98 1028.58 1028.18 1027.54 1026.78 1026.34 1025.74 1025.30 1025.22 1024.94 1024.22 1023.66 1023.10 1022.62 1022.18 1021.66 1021.22 1020.78 1020.38 1020.06 1019.78 1019.58 1019.26 1018.94 1018.70 1018.50 1018.26 1018.10 1017.94 1017.78 1017.74 1017.78 1017.70 1017.58 1017.34 1016.98 1016.82 1016.58 1016.22 1015.82 1015.62 1015.42 1015.14 1014.86 1014.70 1014.34 1013.98 1013.82 1013.62 1013.06 1012.54 1011.90 1011.18 1010.54 1010.26 1009.70 1009.18
1030.58 1030.30 1030.02 1029.66 1029.30 1028.94 1028.50 1028.06 1027.50 1026.78 1026.10 1025.50 1024.90 1024.54 1024.22 1023.90 1023.46 1022.90 1022.34 1021.82 1021.34 1020.78 1020.30 1019.82 1019.46 1019.10 1018.82 1018.46 1018.18 1017.86 1017.58 1017.26 1017.02 1016.86 1016.66 1016.46 1016.34 1016.18 1016.06 1015.98 1015.98 1015.82 1015.62 1015.50 1015.34 1014.98 1014.66 1014.50 1014.14 1014.18 1014.06 1013.74 1013.62 1013.58 1013.38 1012.78 1012.34 1011.82 1011.14 1010.38 1009.70 1009.26 1009.10
1030.26 1029.90 1029.62 1029.30 1028.90 1028.42 1028.02 1027.62 1026.98 1026.26 1025.54 1024.74 1024.18 1023.82 1023.34 1023.14 1022.66 1022.22 1021.54 1021.06 1020.70 1020.34 1019.86 1019.42 1018.94 1018.42 1017.94 1017.46 1017.06 1016.78 1016.50 1016.22 1015.98 1015.78 1015.62 1015.46 1015.30 1015.14 1014.94 1014.58 1014.22 1014.14 1014.22 1014.14 1014.06 1013.98 1013.70 1013.62 1013.50 1013.50 1013.22 1013.18 1013.02 1013.06 1012.86 1012.50 1011.94 1011.58 1011.06 1010.34 1009.78 1009.14 1008.74
1029.86 1029.46 1029.18 1028.86 1028.50 1028.02 1027.58 1027.14 1026.58 1025.78 1024.90 1024.38 1023.58 1023.02 1022.58 1022.38 1021.98 1021.42 1020.98 1020.58 1020.18 1019.74 1019.26 1018.78 1018.30 1017.74 1017.14 1016.66 1016.38 1015.98 1015.62 1015.34 1015.06 1014.74 1014.58 1014.38 1014.22 1014.02 1013.74 1013.50 1013.14 1012.78 1012.62 1012.78 1012.82 1012.74 1012.42 1012.26 1012.74 1012.46 1012.30 1012.34 1012.46 1012.58 1012.30 1012.14 1011.82 1011.78 1011.54 1011.18 1010.42 1009.66 1009.10
1029.42 1029.02 1028.74 1028.42 1028.10 1027.62 1027.06 1026.62 1025.98 1025.10 1024.42 1023.70 1022.86 1022.38 1021.70 1021.78 1021.38 1021.02 1020.46 1019.98 1019.54 1019.10 1018.62 1018.10 1017.62 1017.10 1016.54 1016.02 1015.62 1015.14 1014.74 1014.42 1014.06 1013.74 1013.46 1013.22 1012.98 1012.74 1012.62 1012.46 1012.38 1012.18 1011.90 1011.62 1011.38 1011.30 1011.14 1011.14 1011.38 1011.34 1011.30 1011.46 1011.62 1011.54 1011.34 1011.34 1011.38 1011.46 1011.42 1011.10 1010.42 1009.78 1009.54
1029.06 1028.66 1028.30 1027.94 1027.62 1027.18 1026.54 1025.86 1025.30 1024.66 1023.78 1023.02 1022.26 1021.78 1021.62 1021.38 1020.94 1020.42 1019.82 1019.26 1018.74 1018.26 1017.74 1017.22 1016.78 1016.30 1015.74 1015.18 1014.62 1014.06 1013.54 1013.10 1012.74 1012.54 1012.22 1011.98 1011.62 1011.38 1011.10 1011.02 1010.58 1010.50 1010.54 1010.46 1010.38 1010.30 1010.22 1010.14 1010.18 1010.10 1010.10 1010.34 1010.46 1010.54 1010.58 1010.82 1010.86 1010.94 1010.94 1010.98 1010.78 1010.10 1009.50
1028.74 1028.34 1027.94 1027.46 1027.10 1026.70 1026.06 1025.38 1024.78 1024.14 1023.26 1022.38 1021.74 1021.62 1021.42 1020.98 1020.46 1019.78 1019.18 1018.54 1017.94 1017.38 1016.82 1016.34 1015.90 1015.46 1014.90 1014.34 1013.70 1013.02 1012.38 1011.66 1011.26 1011.06 1010.70 1010.38 1010.14 1009.98 1009.74 1009.54 1009.22 1009.10 1009.06 1008.94 1008.74 1008.62 1008.54 1008.62 1008.70 1008.70 1008.62 1008.66 1008.74 1008.98 1009.50 1010.02 1010.18 1009.94 1010.22 1010.42 1010.14 1009.66 1009.26
1028.26 1027.82 1027.46 1027.02 1026.54 1026.26 1025.78 1024.90 1024.34 1023.58 1022.78 1022.10 1021.42 1021.02 1020.90 1020.54 1019.90 1019.30 1018.62 1017.82 1017.14 1016.54 1015.98 1015.42 1014.90 1014.46 1013.98 1013.38 1012.66 1011.90 1011.10 1010.42 1009.94 1009.66 1009.42 1009.10 1008.62 1008.34 1008.30 1008.06 1007.86 1008.02 1007.98 1007.74 1007.42 1007.34 1007.30 1007.18 1007.06 1007.06 1007.06 1007.02 1007.18 1007.46 1008.14 1008.78 1008.94 1008.82 1009.22 1009.34 1009.34 1008.86 1008.30
1027.74 1027.26 1026.90 1026.50 1026.14 1025.70 1025.42 1024.74 1023.98 1023.22 1022.26 1021.42 1020.86 1020.46 1020.22 1019.98 1019.34 1018.66 1018.06 1017.42 1016.70 1016.02 1015.34 1014.62 1013.94 1013.34 1012.74 1012.22 1011.54 1010.82 1010.10 1009.34 1008.90 1008.62 1008.26 1007.78 1007.42 1006.90 1006.58 1006.42 1006.62 1006.74 1006.74 1006.70 1006.74 1006.62 1006.66 1006.62 1006.62 1006.74 1006.90 1006.94 1007.02 1007.06 1007.18 1007.26 1007.42 1007.90 1008.30 1008.50 1008.26 1007.94 1007.74
1027.34 1026.90 1026.46 1026.10 1025.74 1025.30 1024.86 1024.34 1023.58 1022.94 1021.86 1021.14 1020.54 1019.98 1019.54 1019.22 1018.78 1018.30 1017.62 1016.98 1016.34 1015.58 1014.70 1013.90 1013.10 1012.50 1012.06 1011.50 1011.02 1010.38 1009.62 1008.74 1007.78 1007.34 1007.02 1006.70 1006.06 1005.54 1005.26 1004.94 1004.98 1004.86 1004.98 1005.10 1005.38 1005.54 1005.78 1005.98 1006.14 1006.26 1006.38 1006.50 1006.54 1006.54 1006.58 1006.66 1006.62 1006.82 1007.18 1007.46 1007.34 1007.06 1006.86
1027.18 1026.70 1026.14 1025.62 1025.14 1024.66 1024.10 1023.70 1023.10 1022.34 1021.46 1020.74 1020.06 1019.22 1018.74 1018.58 1018.42 1017.90 1017.34 1016.62 1015.90 1015.10 1014.02 1013.30 1012.82 1012.18 1011.62 1011.22 1010.62 1009.86 1008.90 1008.06 1007.22 1006.70 1006.26 1005.50 1004.58 1004.10 1003.62 1003.42 1003.58 1003.66 1003.94 1004.18 1004.50 1004.82 1005.06 1005.34 1005.46 1005.54 1005.58 1005.66 1005.70 1005.66 1005.66 1005.66 1005.70 1005.94 1006.30 1006.46 1006.38 1006.26 1006.18
1026.82 1026.26 1025.58 1024.98 1024.46 1023.94 1023.38 1022.86 1022.42 1021.86 1021.14 1020.42 1019.66 1018.86 1018.34 1018.18 1017.94 1017.50 1016.94 1016.22 1015.34 1014.46 1013.86 1013.26 1012.42 1011.82 1011.38 1010.94 1010.06 1009.10 1008.26 1007.30 1006.66 1005.94 1005.54 1004.58 1003.34 1002.70 1002.42 1002.38 1002.66 1002.98 1003.26 1003.62 1003.86 1004.06 1004.26 1004.38 1004.46 1004.50 1004.54 1004.54 1004.54 1004.50 1004.54 1004.62 1004.66 1004.78 1005.06 1005.30 1005.34 1005.42 1005.58
1026.26 1025.70 1024.94 1024.30 1023.74 1023.22 1022.62 1022.18 1021.78 1021.38 1020.82 1020.18 1019.50 1018.82 1018.14 1017.62 1017.34 1016.70 1016.54 1016.14 1015.10 1014.34 1013.58 1012.78 1012.18 1011.70 1011.34 1010.62 1009.50 1008.62 1007.74 1006.94 1006.26 1005.70 1005.14 1004.10 1003.26 1002.38 1002.18 1002.10 1002.10 1002.22 1002.50 1002.70 1002.86 1003.02 1003.22 1003.26 1003.38 1003.46 1003.46 1003.38 1003.34 1003.30 1003.38 1003.46 1003.50 1003.58 1003.78 1003.98 1004.18 1004.46 1004.74
1025.54 1025.02 1024.42 1023.78 1023.06 1022.54 1022.10 1021.70 1021.34 1020.78 1020.34 1019.94 1019.42 1018.66 1017.94 1017.34 1016.90 1016.58 1016.30 1015.62 1014.78 1013.94 1013.22 1012.50 1012.14 1011.74 1010.82 1009.94 1009.06 1008.30 1007.66 1006.98 1006.58 1006.02 1004.94 1004.14 1003.42 1002.50 1001.86 1001.70 1001.54 1001.46 1001.46 1001.62 1001.86 1002.06 1002.14 1002.10 1002.06 1002.14 1002.22 1002.18 1002.06 1002.06 1002.10 1002.26 1002.46 1002.62 1002.70 1002.90 1003.14 1003.42 1003.70
1025.18 1024.66 1024.02 1023.34 1022.66 1022.10 1021.74 1021.38 1020.94 1020.38 1019.90 1019.62 1019.22 1018.58 1017.90 1017.18 1016.82 1016.54 1016.06 1015.18 1014.30 1013.70 1012.86 1012.42 1011.94 1011.30 1010.50 1009.86 1009.22 1008.58 1008.02 1007.42 1006.66 1005.82 1005.22 1004.62 1003.74 1002.66 1001.86 1001.38 1001.14 1000.94 1000.78 1000.74 1000.78 1000.82 1000.78 1000.78 1000.70 1000.74 1000.82 1000.90 1001.06 1001.14 1001.26 1001.42 1001.54 1001.74 1001.86 1001.98 1002.22 1002.46 1002.70
1024.78 1024.30 1023.66 1022.94 1022.34 1021.90 1021.50 1021.06 1020.54 1019.98 1019.66 1019.42 1018.94 1018.42 1017.90 1017.38 1016.94 1016.38 1015.46 1014.70 1013.90 1013.02 1012.74 1012.62 1012.14 1011.42 1010.78 1010.18 1009.54 1008.98 1008.42 1007.70 1006.86 1006.14 1005.54 1004.74 1003.94 1003.34 1002.58 1001.82 1001.14 1000.66 1000.38 1000.06 999.78 999.62 999.70 999.50 999.58 999.86 999.90 1000.02 1000.30 1000.54 1000.54 1000.54 1000.62 1000.90 1001.06 1001.22 1001.42 1001.74 1001.82
1024.42 1023.86 1023.22 1022.62 1022.14 1021.78 1021.26 1020.62 1020.14 1019.82 1019.50 1019.14 1018.66 1018.22 1017.78 1017.30 1016.62 1015.66 1014.74 1014.10 1013.38 1012.98 1012.90 1012.50 1011.98 1011.34 1010.70 1010.10 1009.58 1009.14 1008.58 1007.90 1007.18 1006.46 1005.74 1005.06 1004.50 1003.86 1003.14 1002.38 1001.66 1000.98 1000.34 999.66 999.14 998.74 998.54 998.42 998.50 998.78 999.22 999.46 999.58 999.70 999.66 999.70 999.82 1000.02 1000.14 1000.34 1000.54 1000.74 1000.86
1023.98 1023.42 1022.90 1022.38 1021.94 1021.46 1020.78 1020.26 1020.06 1019.74 1019.34 1018.86 1018.54 1018.10 1017.66 1017.06 1016.22 1015.22 1014.50 1013.82 1013.22 1013.06 1012.78 1012.26 1011.66 1011.18 1010.62 1010.06 1009.62 1009.18 1008.62 1008.10 1007.54 1006.94 1006.22 1005.58 1004.98 1004.22 1003.46 1002.66 1001.82 1000.90 999.86 998.90 998.42 998.02 997.46 997.38 997.82 998.26 998.46 998.70 998.86 998.94 998.98 999.10 999.26 999.38 999.38 999.50 999.82 1000.18 1000.18
1023.26 1022.82 1022.50 1022.30 1021.74 1021.06 1020.42 1020.18 1019.82 1019.50 1019.18 1018.78 1018.46 1017.94 1017.14 1016.42 1015.66 1014.94 1014.26 1013.70 1013.26 1012.90 1012.62 1012.22 1011.74 1011.26 1010.70 1010.30 1009.86 1009.34 1008.78 1008.18 1007.54 1006.94 1006.54 1006.02 1005.30 1004.58 1003.78 1002.90 1002.10 1001.30 999.94 998.50 997.78 997.34 997.30 997.38 997.46 997.78 997.98 998.22 998.34 998.50 998.58 998.62 998.78 998.86 998.98 999.06 999.22 999.42 999.62
1022.70 1022.46 1022.22 1021.78 1021.22 1020.98 1020.50 1020.02 1019.58 1019.18 1018.74 1018.22 1017.74 1017.18 1016.58 1015.82 1015.14 1014.58 1014.10 1013.58 1013.30 1013.14 1012.74 1012.30 1011.98 1011.50 1011.06 1010.58 1010.18 1009.66 1009.02 1008.42 1007.90 1007.30 1006.66 1006.22 1005.66 1005.06 1004.26 1003.34 1002.46 1001.70 1000.70 999.14 998.06 997.58 997.38 997.46 997.62 997.78 997.94 998.14 998.22 998.30 998.38 998.34 998.46 998.58 998.66 998.78 998.90 999.02 999.14
1022.06 1021.82 1021.58 1021.38 1020.90 1020.62 1020.50 1020.02 1019.50 1018.94 1018.42 1017.94 1017.42 1016.74 1016.02 1015.34 1014.82 1014.38 1013.98 1013.58 1013.38 1013.18 1012.94 1012.54 1012.18 1011.74 1011.38 1010.98 1010.58 1010.06 1009.46 1008.90 1008.34 1007.78 1007.26 1006.66 1006.10 1005.50 1004.78 1003.90 1003.10 1002.26 1001.46 1000.62 999.02 997.86 997.66 997.58 997.74 997.90 997.98 998.10 998.10 998.18 998.26 998.26 998.26 998.42 998.50 998.46 998.50 998.70 998.90
1021.90 1021.54 1021.14 1020.98 1020.90 1020.62 1020.22 1019.78 1019.30 1018.78 1018.22 1017.74 1017.18 1016.46 1015.78 1014.90 1014.42 1014.14 1013.94 1013.78 1013.74 1013.50 1013.10 1012.78 1012.42 1012.02 1011.58 1011.22 1010.82 1010.34 1009.86 1009.34 1008.82 1008.26 1007.78 1007.14 1006.42 1005.74 1005.18 1004.54 1003.78 1002.94 1002.26 1001.14 999.70 998.18 997.78 997.74 997.78 997.78 997.82 997.90 997.94 998.06 998.14 998.22 998.18 998.22 998.38 998.30 998.22 998.46 998.62
1021.70 1021.38 1020.90 1020.66 1020.46 1020.22 1019.94 1019.46 1018.94 1018.54 1018.14 1017.54 1016.90 1016.22 1015.54 1014.74 1014.62 1014.50 1014.22 1014.06 1013.98 1013.74 1013.30 1012.98 1012.66 1012.26 1011.86 1011.50 1011.10 1010.62 1010.14 1009.58 1009.14 1008.66 1008.14 1007.62 1007.02 1006.30 1005.54 1004.94 1004.22 1003.38 1002.26 1001.10 999.86 998.42 997.90 997.74 997.70 997.66 997.74 997.82 997.90 998.02 998.10 998.14 998.18 998.14 998.18 998.18 998.18 998.14 998.22
1021.78 1021.38 1021.22 1020.94 1020.58 1020.14 1019.62 1019.22 1018.90 1018.46 1018.10 1017.54 1016.70 1015.94 1015.30 1014.86 1014.82 1014.74 1014.50 1014.38 1014.26 1013.98 1013.58 1013.30 1012.90 1012.50 1012.14 1011.70 1011.34 1010.86 1010.38 1009.86 1009.38 1008.90 1008.38 1007.86 1007.34 1006.78 1006.06 1005.22 1004.34 1003.46 1002.62 1001.74 1000.90 999.50 997.98 997.82 997.74 997.74 997.78 997.86 997.90 997.94 998.06 998.10 998.10 998.06 998.02 998.14 998.02 997.90 998.02
1021.34 1021.26 1021.18 1020.90 1020.58 1020.22 1019.86 1019.54 1019.18 1018.82 1018.34 1017.70 1016.66 1015.86 1015.42 1015.26 1015.18 1014.94 1014.74 1014.58 1014.50 1014.18 1013.94 1013.54 1013.18 1012.74 1012.34 1011.94 1011.46 1011.02 1010.62 1010.10 1009.62 1009.10 1008.58 1008.10 1007.50 1006.90 1006.26 1005.54 1004.62 1003.86 1003.14 1002.50 1001.66 1000.74 999.14 997.90 997.74 997.70 997.74 997.74 997.78 997.90 998.02 998.02 998.02 997.98 997.90 997.86 997.94 997.82 997.74
1021.14 1020.98 1020.78 1020.62 1020.34 1020.02 1019.70 1019.46 1019.14 1018.78 1018.14 1016.98 1016.38 1016.14 1016.06 1015.74 1015.38 1015.14 1014.94 1014.74 1014.50 1014.30 1014.06 1013.78 1013.38 1012.98 1012.54 1012.18 1011.70 1011.26 1010.78 1010.38 1009.86 1009.34 1008.86 1008.34 1007.82 1007.18 1006.58 1005.86 1005.10 1004.34 1003.70 1003.10 1002.54 1001.58 1000.62 999.34 998.06 997.62 997.66 997.62 997.66 997.74 997.78 997.82 997.82 997.82 997.86 997.78 997.78 997.74 997.58
Wind_Speed
13 13 13 14 14 15 15 15 15 14 14 14 15 14 15 15 15 15 14 15 16 14 15 14 15 14 15 14 13 12 11 11 12 12 11 11 10 12 11 10 11 13 15 13 11 15 13 14 14 15 14 16 13 12 11 13 13 14 12 11 10 10 17
12 13 14 15 15 16 16 16 17 17 14 16 15 17 13 14 15 15 16 15 16 16 13 14 15 16 15 14 14 13 13 12 12 12 12 11 11 11 11 11 12 13 13 15 10 13 13 12 12 14 13 14 15 14 12 13 12 11 11 10 10 10 10
13 14 14 15 16 18 16 17 16 15 16 15 16 17 16 16 17 17 17 17 17 16 16 15 15 16 14 12 14 14 13 13 13 12 13 13 12 12 13 13 13 12 13 14 13 12 15 12 12 14 14 14 14 13 13 14 13 12 11 10 12 11 9
14 14 15 16 17 16 16 17 16 17 15 17 17 16 17 17 16 16 17 17 17 17 16 16 15 16 15 14 15 14 13 12 12 12 12 13 12 12 14 13 13 14 13 12 13 12 13 12 11 11 13 12 13 15 14 13 13 11 11 12 11 12 11
14 15 15 15 16 17 17 17 17 17 17 16 15 17 17 16 16 16 17 17 17 17 16 16 16 15 14 13 14 13 13 12 14 12 12 13 12 12 11 11 12 13 13 13 14 13 12 13 13 12 13 12 12 13 13 13 12 11 12 12 12 12 12
14 14 16 16 16 18 17 17 17 17 17 17 16 16 16 16 16 17 16 16 16 15 15 15 16 15 15 14 15 14 13 12 14 14 14 15 14 12 12 12 13 13 13 13 14 13 14 13 14 13 12 11 12 13 14 13 15 15 13 12 12 12 10
15 15 16 16 17 16 17 17 17 17 16 16 16 16 16 16 17 17 16 16 16 16 16 16 16 16 16 16 16 16 15 14 15 14 16 15 15 15 14 14 13 13 14 14 14 13 14 14 13 13 15 11 11 13 13 14 13 13 12 12 13 13 11
15 16 14 15 15 16 16 16 16 16 17 16 16 15 15 16 16 16 16 17 17 17 17 17 18 17 17 17 16 16 16 16 16 15 16 15 14 14 15 14 14 13 13 14 13 13 13 12 13 13 13 12 11 12 13 13 13 14 13 12 12 12 12
16 15 16 16 16 16 15 14 15 13 13 14 16 15 15 16 17 17 17 18 18 18 18 17 16 17 17 19 24 29 26 22 20 14 14 15 14 15 15 15 13 13 13 13 13 13 12 12 13 13 12 12 10 11 12 11 12 14 14 13 14 13 12
14 14 14 15 15 14 14 14 13 17 26 24 18 17 16 15 17 18 18 18 18 16 16 17 17 17 27 29 30 31 33 34 33 33 23 16 13 15 15 15 14 14 14 13 14 14 13 13 13 13 13 13 13 12 12 13 12 14 14 12 13 12 12
14 14 13 14 14 15 14 14 13 25 22 20 30 24 19 17 17 17 18 18 18 18 18 17 16 15 19 24 28 27 34 33 35 34 35 37 34 26 17 14 17 16 15 15 14 14 14 14 15 14 13 14 14 12 13 12 13 13 13 12 12 14 10
14 14 14 13 14 15 15 15 21 27 21 25 25 28 21 17 15 15 16 16 17 16 16 17 16 15 14 15 19 19 20 26 32 34 36 37 36 37 38 35 23 17 16 17 16 16 15 15 15 14 13 14 12 13 13 14 14 13 12 13 13 13 13
14 14 13 14 15 15 15 15 22 26 22 25 24 22 23 15 15 15 15 16 16 16 16 15 15 16 15 15 26 23 20 19 20 29 34 35 37 37 38 37 39 37 24 15 17 16 16 16 14 14 13 14 14 12 14 13 13 11 12 12 14 13 11
15 14 13 13 14 15 15 15 20 27 23 21 29 30 25 16 16 16 15 16 15 15 16 16 16 16 16 16 16 16 18 18 19 19 20 21 22 20 27 36 40 39 42 33 19 16 18 18 16 17 14 15 14 14 13 13 13 12 12 12 13 12 12
13 13 12 12 13 14 15 14 25 24 22 23 30 29 25 14 15 14 14 14 15 16 16 17 17 18 18 18 17 17 20 19 19 19 19 19 20 20 21 21 21 22 22 22 21 20 19 18 19 18 19 16 14 16 15 14 13 12 12 14 17 17 15
12 14 14 14 14 14 15 15 24 20 31 26 29 30 19 14 15 14 14 15 15 16 15 15 16 16 17 18 18 23 32 29 22 20 21 20 20 20 18 20 24 32 31 25 20 19 19 17 20 25 21 19 17 16 16 15 14 13 13 14 14 14 12
13 12 13 15 14 15 15 16 22 23 28 34 33 25 15 14 13 13 14 15 15 15 16 16 16 16 16 17 18 26 34 34 33 23 22 18 17 18 17 17 20 31 37 38 38 38 39 39 37 36 37 37 39 27 18 14 14 17 13 15 16 15 14
13 12 12 14 15 14 15 17 20 28 23 24 28 28 16 13 12 13 14 14 15 14 14 17 26 25 19 19 20 29 35 36 32 24 22 21 21 19 16 16 20 16 19 33 36 36 37 36 36 35 37 38 36 36 27 14 18 17 14 16 16 16 14
12 13 12 13 15 20 19 17 20 27 25 23 24 21 17 13 12 13 13 14 14 15 15 15 18 25 23 19 22 32 32 35 31 22 19 19 18 18 18 17 18 19 19 18 18 19 20 21 25 22 18 17 28 30 28 20 18 15 15 16 16 16 14
12 14 14 14 15 14 14 15 15 18 28 22 22 25 19 12 12 13 14 14 14 15 16 15 14 17 22 26 28 31 35 35 37 25 20 19 17 18 16 15 18 20 19 19 18 17 17 17 16 14 14 13 14 17 19 18 17 14 15 16 16 16 16
14 14 15 14 14 14 14 13 15 18 26 22 29 31 27 15 14 13 13 14 16 14 14 14 14 13 19 26 32 34 36 36 35 32 21 20 16 14 17 18 14 18 22 18 16 14 13 12 12 13 13 13 13 13 14 14 17 16 16 17 18 17 16
14 14 14 14 13 13 13 14 18 15 21 27 25 28 31 17 13 16 15 16 14 14 14 14 14 13 20 30 35 35 35 37 34 34 19 19 25 26 25 18 12 9 8 11 11 12 13 13 13 14 13 13 13 13 14 15 15 16 16 16 17 17 17
13 13 13 12 12 11 12 12 13 19 17 23 26 30 22 26 21 26 18 15 15 15 15 14 14 15 25 32 36 34 33 32 33 27 19 31 29 23 19 16 9 10 11 11 12 13 12 13 13 13 13 14 13 13 13 14 15 16 16 16 17 17 17
11 12 12 12 12 11 11 12 12 15 21 19 25 28 27 26 24 26 16 17 14 15 15 14 14 17 32 35 33 32 31 30 28 20 28 30 31 27 17 8 8 8 10 13 12 12 13 13 14 13 13 13 13 13 13 14 14 15 16 17 15 17 18
11 11 12 12 12 12 12 12 13 13 15 22 23 25 25 27 26 28 30 18 15 16 14 17 26 31 31 29 29 29 28 23 23 26 26 28 26 23 10 8 6 7 8 11 13 13 14 14 14 14 14 13 12 12 12 11 12 14 15 16 16 15 15
11 11 11 12 12 12 12 13 13 13 12 14 16 17 21 26 26 28 27 23 18 22 21 22 26 28 25 21 19 17 15 15 16 24 25 23 20 11 10 9 10 9 10 10 11 14 14 15 13 13 13 14 12 11 11 11 12 13 14 15 14 14 15
11 11 11 12 12 12 13 13 12 12 12 11 11 11 14 16 17 22 21 15 13 13 11 15 16 14 19 17 21 21 20 18 18 15 13 11 11 11 10 11 10 11 12 13 11 10 12 13 13 12 11 11 11 11 11 10 10 11 12 13 14 15 15
11 11 11 12 12 13 13 13 11 11 11 12 12 14 14 14 15 14 12 12 12 12 12 12 13 14 10 11 11 11 11 11 11 11 12 11 11 11 12 14 18 17 13 11 10 10 10 9 7 8 8 9 9 10 9 9 9 9 9 9 12 13 14
13 13 12 12 13 13 13 12 12 10 16 19 24 20 17 14 13 13 11 14 19 14 10 9 9 9 10 10 11 12 11 12 12 11 12 12 12 11 11 11 10 11 13 11 8 6 3 3 5 6 6 5 6 7 8 7 7 8 9 9 9 9 7
16 15 14 12 12 11 12 12 13 19 21 20 26 29 25 26 23 19 18 18 19 12 8 8 9 9 10 10 11 12 12 12 12 13 13 12 14 13 11 12 11 11 13 14 9 1 2 4 3 4 4 4 5 4 5 6 8 6 6 7 7 8 8
20 19 22 15 12 12 19 21 24 24 20 21 22 23 22 24 21 20 19 19 14 8 7 8 9 9 9 10 10 11 11 12 12 12 12 13 12 11 12 12 11 11 12 14 13 5 2 3 3 3 4 3 4 4 4 3 5 4 6 8 8 8 8
19 18 21 20 16 15 12 16 20 22 20 23 21 24 24 25 21 22 21 18 14 7 7 7 8 9 9 10 10 11 11 11 12 12 12 12 13 12 11 12 12 13 13 12 12 7 2 2 2 3 3 3 2 3 3 3 4 4 5 8 8 9 8
17 18 17 18 18 17 15 18 20 21 18 22 28 26 26 23 20 18 17 15 8 6 7 8 8 9 9 9 10 11 11 11 11 11 12 11 11 12 12 12 14 16 13 12 13 9 4 2 3 2 3 3 3 2 3 3 4 4 4 6 7 9 9
17 17 18 17 19 22 21 21 22 24 26 26 25 21 20 21 13 15 14 11 7 7 7 8 9 9 9 9 10 10 11 11 11 11 11 11 11 11 12 13 13 12 12 11 12 11 6 3 3 3 3 4 3 4 3 3 4 4 5 5 6 8 8
11 12 14 14 15 17 19 19 21 23 23 24 24 23 23 18 9 9 8 7 6 7 7 8 8 9 9 9 10 10 10 11 12 11 11 11 12 11 12 12 12 12 12 12 12 11 11 6 4 4 4 4 5 5 5 5 5 6 6 6 5 7 8
11 11 13 19 17 17 17 19 20 21 22 22 21 21 19 9 8 8 8 8 7 7 8 8 8 9 9 9 10 10 10 10 11 11 11 11 11 12 12 11 12 12 12 12 11 11 12 13 6 4 4 4 5 5 6 6 6 6 6 7 6 6 8
Wind_Direction
302 301 305 307 304 302 303 301 299 300 300 296 295 296 294 292 290 287 286 288 285 283 282 280 278 277 275 275 274 272 271 270 270 269 267 268 270 268 266 265 266 266 274 275 272 276 276 277 276 274 270 273 273 270 267 266 266 267 256 253 255 253 251
307 309 309 305 302 304 303 300 302 300 297 296 294 293 291 290 288 287 284 282 282 282 279 279 279 276 274 273 271 270 268 267 266 266 268 269 265 266 266 262 264 268 270 276 276 277 280 280 280 277 273 269 269 270 271 270 272 267 264 252 252 255 255
302 302 302 302 305 305 301 300 298 297 294 292 290 289 286 285 285 284 282 282 279 277 278 277 275 274 272 272 270 266 264 264 262 261 261 259 259 263 263 263 262 267 269 272 273 275 279 275 274 270 275 276 279 279 275 271 264 264 263 261 253 252 255
304 305 307 308 304 300 300 298 296 296 293 290 288 287 286 284 280 279 277 275 275 276 272 271 270 270 270 269 267 266 264 261 259 259 258 257 256 256 259 259 261 258 264 270 273 268 271 277 278 276 279 280 278 275 272 271 272 267 267 266 266 259 249
305 305 305 302 301 301 299 298 295 294 291 289 286 285 283 280 278 274 272 271 271 272 270 269 267 268 266 265 265 263 260 258 257 255 254 255 256 256 258 260 259 260 259 264 266 271 270 279 277 277 276 276 277 279 282 282 274 265 261 262 263 262 255
304 302 300 299 299 298 297 297 296 293 291 288 286 282 280 277 275 274 273 273 272 271 269 267 266 264 263 261 259 260 258 255 254 253 252 252 252 253 256 258 259 259 262 263 264 266 272 270 278 278 271 266 265 267 269 266 269 272 269 267 261 253 251
299 298 297 296 296 293 295 295 294 292 287 284 282 279 276 275 274 273 273 271 270 267 265 263 263 262 259 256 254 254 253 252 251 251 250 248 248 247 249 252 252 253 255 255 259 260 260 267 269 271 276 269 264 264 262 268 267 258 256 253 254 254 245
297 295 292 292 291 293 293 290 288 285 286 285 282 278 276 274 274 273 271 269 267 266 264 262 260 257 253 250 250 248 248 246 249 245 248 245 243 245 244 244 246 247 249 251 252 254 256 257 264 266 265 272 267 263 257 251 259 263 257 255 253 252 253
295 293 293 290 289 289 287 285 282 280 279 280 276 271 269 268 267 266 267 266 263 261 261 258 254 252 249 247 245 244 243 241 237 238 242 242 238 239 240 241 243 245 246 247 250 252 250 254 255 256 265 268 263 257 262 260 250 255 254 253 254 255 252
291 289 286 288 287 285 283 280 278 275 275 274 274 276 275 273 272 271 270 269 267 261 251 246 244 244 245 244 244 245 244 245 246 245 243 243 240 239 239 239 240 240 241 244 245 247 249 248 248 249 253 261 261 266 270 272 270 266 261 255 253 253 244
287 285 284 285 284 282 280 276 275 277 276 276 278 276 272 273 274 272 271 270 271 270 269 269 265 255 249 249 250 252 253 252 252 251 250 248 246 242 239 239 239 237 236 238 240 242 242 242 247 246 249 253 263 262 267 266 263 261 262 255 251 251 245
284 282 282 280 280 279 277 276 275 280 282 284 283 283 283 280 275 275 276 275 274 275 276 276 274 269 265 260 257 255 254 254 253 252 250 249 248 247 245 241 235 234 234 233 237 238 236 237 239 243 241 248 251 259 263 263 266 266 265 261 251 250 251
284 283 281 278 277 277 277 278 280 283 282 281 285 287 286 284 283 283 279 279 279 277 276 272 269 267 264 260 259 257 254 252 252 254 253 252 251 249 248 249 247 240 234 229 234 232 234 233 241 241 238 241 247 249 255 261 262 264 268 264 261 258 263
281 281 279 277 275 277 277 275 278 283 281 284 286 287 288 286 288 290 288 282 275 271 269 265 264 266 265 262 261 258 256 253 251 250 249 247 246 243 246 247 248 251 249 244 235 228 233 234 232 241 239 236 236 240 243 248 252 260 274 281 278 289 287
285 281 278 277 277 277 277 273 279 282 283 285 286 287 291 297 295 291 284 278 273 269 267 266 265 265 265 265 263 259 256 254 251 251 250 247 245 241 240 238 241 243 244 246 246 242 237 236 234 235 236 234 230 232 235 238 247 252 258 270 281 275 275
280 281 281 280 278 278 276 275 280 284 286 286 288 290 298 300 296 291 284 277 274 271 271 269 267 266 266 265 264 263 264 262 258 253 250 244 240 238 233 236 235 242 242 241 239 240 242 242 238 237 233 233 230 232 233 236 243 246 249 255 259 266 271
281 279 280 280 279 278 278 279 283 285 286 288 291 294 296 295 293 289 287 281 279 277 274 272 269 268 268 268 267 268 269 270 267 260 256 246 232 229 228 233 239 247 247 249 246 240 237 237 237 237 238 236 234 229 222 223 231 231 229 241 249 253 258
281 278 277 279 279 277 280 282 284 287 287 290 292 296 298 298 294 289 290 289 286 285 281 278 277 275 269 266 266 268 271 271 272 266 262 258 252 232 222 227 238 241 244 247 249 247 243 239 235 234 233 233 233 231 222 211 223 226 225 234 239 250 252
283 282 281 279 279 280 281 281 282 286 289 290 293 296 299 295 290 292 293 294 292 289 287 286 282 280 280 281 281 286 290 288 287 280 275 268 252 245 233 236 234 238 239 236 238 245 249 254 255 254 254 257 256 254 246 233 226 221 223 230 236 242 247
284 285 284 282 280 277 272 272 274 276 284 287 293 295 296 299 304 300 297 297 297 296 290 288 289 292 292 291 295 296 296 294 292 294 292 286 273 259 245 237 236 232 233 235 231 235 237 240 244 248 250 251 247 245 246 245 242 231 218 224 232 237 239
283 283 281 280 277 276 274 268 273 278 288 292 295 299 305 311 306 301 300 299 299 295 298 302 297 293 294 298 300 299 296 295 294 297 298 296 279 254 246 241 231 233 222 233 235 232 234 235 234 238 240 240 238 236 233 232 234 232 229 227 229 232 237
279 279 280 280 280 278 279 278 279 286 291 296 300 304 307 309 301 302 304 308 303 302 303 298 298 297 300 301 300 299 298 299 304 307 311 294 282 263 259 258 239 223 222 226 226 227 227 228 233 231 228 230 230 228 224 224 226 225 223 227 232 233 236
274 276 278 281 285 286 287 289 292 292 292 295 300 304 305 308 308 314 321 312 306 305 301 299 298 300 299 297 299 301 305 309 312 316 305 303 308 297 293 287 260 226 218 216 217 217 221 225 223 224 226 226 225 224 218 219 221 220 218 221 225 229 232
282 285 285 288 290 292 294 298 297 296 296 297 299 303 306 309 312 317 320 312 303 303 299 300 302 300 300 304 309 313 314 314 314 306 308 317 319 318 310 287 268 230 221 219 214 217 219 222 221 220 224 224 223 224 218 217 218 218 216 215 218 222 226
284 284 287 289 293 296 299 301 300 298 298 300 301 302 305 309 314 318 313 305 303 298 298 301 303 305 307 310 313 314 316 314 309 312 315 315 314 316 310 300 285 280 252 228 219 215 218 220 221 217 221 223 225 227 225 221 219 218 218 215 216 218 220
284 284 287 289 293 297 301 301 300 301 302 303 302 301 305 308 310 305 304 305 301 304 308 308 304 301 304 307 310 315 313 309 311 312 313 315 321 322 317 314 306 300 294 274 245 225 219 221 220 220 220 220 221 223 229 225 219 216 218 217 216 218 221
284 286 287 290 293 297 300 299 302 303 303 303 302 305 307 306 302 302 308 309 308 316 315 305 302 302 306 308 313 315 313 313 314 316 319 322 322 317 313 309 306 300 293 282 271 255 232 227 219 215 216 216 215 220 225 221 222 218 215 215 214 216 216
282 285 289 291 296 296 297 300 301 298 301 302 305 306 303 301 301 308 312 312 316 322 316 309 308 310 313 317 320 319 320 321 321 320 322 322 320 315 311 307 304 300 285 274 261 256 250 224 208 205 211 210 210 214 215 219 227 230 222 209 212 210 217
279 283 283 289 292 297 297 298 296 296 298 299 302 303 303 305 308 311 317 320 325 327 320 314 316 318 322 327 324 324 324 326 327 329 327 325 324 320 317 314 316 312 306 301 275 251 185 175 176 202 203 209 203 202 214 212 222 228 232 217 196 193 187
284 282 289 290 291 294 299 298 299 301 301 303 310 311 310 313 317 329 331 327 334 331 320 322 324 326 327 326 328 325 326 327 331 330 331 331 328 324 319 317 317 316 317 322 316 274 138 142 157 179 184 189 208 210 215 220 222 229 225 208 190 190 182
291 296 300 301 301 302 300 301 303 307 308 311 314 314 317 319 325 332 333 338 340 334 325 324 324 325 326 326 325 324 324 328 327 328 329 328 326 323 321 321 320 319 320 317 311 297 224 171 181 189 191 205 213 223 220 236 218 225 227 215 197 186 184
299 302 305 309 308 308 305 306 308 311 314 317 319 321 321 322 332 336 335 337 340 328 326 324 323 323 326 327 326 324 324 325 326 326 326 326 327 326 327 324 321 318 312 304 298 295 263 200 205 194 201 203 216 217 220 218 233 224 232 213 194 188 187
304 304 308 313 314 312 311 314 318 318 319 321 322 319 321 328 336 335 333 341 341 336 328 329 325 322 322 324 323 323 323 323 323 325 324 326 325 324 325 321 315 313 312 316 315 300 274 247 212 209 199 210 212 219 223 226 231 229 239 226 201 196 186
300 305 307 307 310 314 316 321 321 323 324 322 320 320 325 333 334 333 340 345 335 333 329 328 324 322 321 320 320 320 322 321 324 323 322 322 323 322 321 319 320 323 325 323 323 317 289 262 251 219 221 212 218 214 220 228 231 234 236 238 222 196 187
306 305 305 307 308 309 311 315 318 318 320 315 316 328 335 336 333 332 338 340 335 329 328 326 323 321 322 322 322 321 321 321 323 321 322 323 322 324 323 324 328 330 329 329 324 324 315 284 248 238 222 228 217 212 217 219 221 226 231 235 233 212 190
299 302 305 306 306 306 312 315 316 317 315 317 331 338 345 336 328 323 325 327 329 328 325 324 321 322 319 322 320 320 320 321 321 321 321 321 323 323 323 325 330 331 333 328 326 323 329 328 296 237 230 230 222 222 216 217 220 217 225 227 232 227 207